Location: Fort Worth, Tx
(32.7431°N, 97.3695°W)
Time: 04:51:38
(UTC-05:00)

Altair - Pass Details

Date: 03 October 2023
Orbit: 1501 x 1682 km, 47.2° (Epoch: 06 December)

Event Time Altitude Azimuth Distance (km) Brightness Sun altitude
Rises 03:24:43 0° 235° (SW) 4,700 - -57.3°
Reaches altitude 10° 03:27:43 10° 237° (WSW) 3,741 - -56.9°
Maximum altitude 03:37:16 79° 324° (NW) 1,630 - -55.8°
Exits shadow 03:43:33 27° 48° (NE) 2,777 9.0 -55.0°
Drops below altitude 10° 03:47:16 10° 52° (NE) 3,894 10.0 -54.5°
Sets 03:50:28 0° 53° (NE) 4,901 10.7 -54.1°
